Time,TemperatureF,DewpointF,PressureIn,WindDirection,WindDirectionDegrees,WindSpeedMPH,WindSpeedGustMPH,Humidity,HourlyPrecipIn,Conditions,Clouds,dailyrainin,SoftwareType,DateUTC
2013-02-16 00:00:00,32.2,31.1,29.94,NW,310,0.0,0.0,96,0.00,,,0.00,meteohub,2013-02-16 05:00:00,
2013-02-16 00:05:00,32.2,31.1,29.93,NW,310,0.0,0.0,96,0.00,,,0.00,meteohub,2013-02-16 05:05:00,
2013-02-16 00:10:00,31.8,30.7,29.94,NW,310,0.0,0.0,96,0.00,,,0.00,meteohub,2013-02-16 05:10:00,
2013-02-16 00:16:00,31.8,30.7,29.94,NW,310,0.0,0.0,96,0.00,,,0.00,meteohub,2013-02-16 05:16:00,
2013-02-16 00:21:00,32.0,30.9,29.94,NW,310,0.0,0.0,96,0.00,,,0.00,meteohub,2013-02-16 05:21:00,
2013-02-16 00:23:00,32.0,30.9,29.95,NW,310,0.0,0.0,96,0.00,,,0.00,meteohub,2013-02-16 05:23:00,
2013-02-16 00:28:00,32.0,30.9,29.95,NW,310,0.0,0.0,96,0.00,,,0.00,meteohub,2013-02-16 05:28:00,
2013-02-16 00:33:00,32.4,31.3,29.94,North,-999,-999.0,0.0,96,0.00,,,0.00,meteohub,2013-02-16 05:33:00,
2013-02-16 00:38:00,32.5,31.8,29.94,NW,310,0.0,0.0,97,0.00,,,0.00,meteohub,2013-02-16 05:38:00,
2013-02-16 00:43:00,32.5,31.8,29.94,NW,310,0.0,0.0,97,0.00,,,0.00,meteohub,2013-02-16 05:43:00,
2013-02-16 00:48:00,32.5,31.8,29.94,NW,310,0.0,0.0,97,0.00,,,0.00,meteohub,2013-02-16 05:48:00,
2013-02-16 00:54:00,32.5,31.5,29.94,NW,310,0.0,0.0,96,0.00,,,0.00,meteohub,2013-02-16 05:54:00,
2013-02-16 00:59:00,32.7,32.0,29.94,NW,310,0.0,0.0,97,0.00,,,0.00,meteohub,2013-02-16 05:59:00,
2013-02-16 01:04:00,32.7,32.0,29.94,NW,310,0.0,0.0,97,0.00,,,0.00,meteohub,2013-02-16 06:04:00,
2013-02-16 01:09:00,32.7,32.0,29.94,NW,310,0.0,0.0,97,0.00,,,0.00,meteohub,2013-02-16 06:09:00,
2013-02-16 01:14:00,32.7,32.0,29.94,NW,310,0.0,0.0,97,0.00,,,0.00,meteohub,2013-02-16 06:14:00,
2013-02-16 01:19:00,32.7,31.6,29.95,NW,310,0.0,0.0,96,0.00,,,0.00,meteohub,2013-02-16 06:19:00,
2013-02-16 01:25:00,33.1,32.4,29.95,NW,310,0.0,0.0,97,0.00,,,0.00,meteohub,2013-02-16 06:25:00,
2013-02-16 01:30:00,33.4,32.7,29.95,NW,310,0.0,0.0,97,0.00,,,0.00,meteohub,2013-02-16 06:30:00,
2013-02-16 01:35:00,34.0,33.3,29.94,NW,310,0.0,0.0,97,0.00,,,0.00,meteohub,2013-02-16 06:35:00,
2013-02-16 01:40:00,34.3,33.8,29.94,NW,310,0.0,0.0,98,0.00,,,0.00,meteohub,2013-02-16 06:40:00,
2013-02-16 01:45:00,34.3,33.6,29.94,NW,310,0.0,0.0,97,0.00,,,0.00,meteohub,2013-02-16 06:45:00,
2013-02-16 01:50:00,34.5,33.8,29.94,NW,310,0.0,0.0,97,0.00,,,0.00,meteohub,2013-02-16 06:50:00,
2013-02-16 01:56:00,35.1,34.3,29.94,NW,310,0.0,0.0,97,0.00,,,0.00,meteohub,2013-02-16 06:56:00,
2013-02-16 02:01:00,35.2,34.5,29.94,NW,310,0.0,0.0,97,0.00,,,0.00,meteohub,2013-02-16 07:01:00,
2013-02-16 02:06:00,35.2,34.5,29.94,NW,310,0.0,0.0,97,0.00,,,0.00,meteohub,2013-02-16 07:06:00,
2013-02-16 02:11:00,35.4,34.2,29.94,NW,310,0.0,0.0,95,0.00,,,0.00,meteohub,2013-02-16 07:11:00,
2013-02-16 02:16:00,35.6,33.4,29.95,NW,310,0.0,0.0,92,0.00,,,0.00,meteohub,2013-02-16 07:16:00,
2013-02-16 02:21:00,36.0,33.1,29.95,NW,310,0.0,0.0,89,0.00,,,0.00,meteohub,2013-02-16 07:21:00,
2013-02-16 02:27:00,36.3,32.5,29.95,NW,310,0.0,0.0,86,0.00,,,0.00,meteohub,2013-02-16 07:27:00,
2013-02-16 02:32:00,36.9,32.5,29.95,NW,310,0.0,0.0,84,0.00,,,0.00,meteohub,2013-02-16 07:32:00,
2013-02-16 02:37:00,36.9,32.2,29.94,NW,310,0.0,0.0,83,0.00,,,0.00,meteohub,2013-02-16 07:37:00,
2013-02-16 02:42:00,36.9,32.2,29.94,NW,310,0.0,0.0,83,0.00,,,0.00,meteohub,2013-02-16 07:42:00,
2013-02-16 02:47:00,36.7,32.0,29.94,NW,310,0.0,0.0,83,0.00,,,0.00,meteohub,2013-02-16 07:47:00,
2013-02-16 02:52:00,36.5,31.8,29.94,NW,310,0.0,0.0,83,0.00,,,0.00,meteohub,2013-02-16 07:52:00,
2013-02-16 02:57:00,36.3,31.6,29.94,NW,310,0.0,0.0,83,0.00,,,0.00,meteohub,2013-02-16 07:57:00,
2013-02-16 03:02:00,36.1,31.8,29.94,NW,310,0.0,0.0,84,0.00,,,0.00,meteohub,2013-02-16 08:02:00,
2013-02-16 03:07:00,36.0,31.6,29.94,NW,310,0.0,0.0,84,0.00,,,0.00,meteohub,2013-02-16 08:07:00,
2013-02-16 03:12:00,36.0,31.8,29.94,NW,310,0.0,0.0,85,0.00,,,0.00,meteohub,2013-02-16 08:12:00,
2013-02-16 03:17:00,35.8,31.6,29.94,NW,310,0.0,0.0,85,0.00,,,0.00,meteohub,2013-02-16 08:17:00,
2013-02-16 03:22:00,35.4,31.6,29.94,NW,310,0.0,0.0,86,0.00,,,0.00,meteohub,2013-02-16 08:22:00,
2013-02-16 03:28:00,35.2,31.8,29.94,NW,310,0.0,0.0,87,0.00,,,0.00,meteohub,2013-02-16 08:28:00,
2013-02-16 03:33:00,34.9,31.6,29.94,NW,310,0.0,0.0,88,0.00,,,0.00,meteohub,2013-02-16 08:33:00,
2013-02-16 03:38:00,34.7,31.5,29.94,NW,310,0.0,0.0,88,0.00,,,0.00,meteohub,2013-02-16 08:38:00,
2013-02-16 03:43:00,34.5,31.6,29.94,NW,310,0.0,0.0,89,0.00,,,0.00,meteohub,2013-02-16 08:43:00,
2013-02-16 03:48:00,34.3,31.5,29.93,NW,310,0.0,0.0,89,0.00,,,0.00,meteohub,2013-02-16 08:48:00,
2013-02-16 03:53:00,34.2,31.5,29.94,NW,310,0.0,0.0,90,0.00,,,0.00,meteohub,2013-02-16 08:53:00,
2013-02-16 03:59:00,34.2,31.5,29.94,NW,310,0.0,0.0,90,0.00,,,0.00,meteohub,2013-02-16 08:59:00,
2013-02-16 04:04:00,34.0,31.3,29.94,NW,310,0.0,0.0,90,0.00,,,0.00,meteohub,2013-02-16 09:04:00,
2013-02-16 04:09:00,33.8,31.5,29.94,NW,310,0.0,0.0,91,0.00,,,0.00,meteohub,2013-02-16 09:09:00,
2013-02-16 04:14:00,33.6,31.3,29.94,NW,310,0.0,0.0,91,0.00,,,0.00,meteohub,2013-02-16 09:14:00,
2013-02-16 04:19:00,33.4,31.1,29.94,NW,310,0.0,0.0,91,0.00,,,0.00,meteohub,2013-02-16 09:19:00,
2013-02-16 04:24:00,33.4,31.3,29.94,NW,310,0.0,0.0,92,0.00,,,0.00,meteohub,2013-02-16 09:24:00,
2013-02-16 04:29:00,33.3,31.1,29.94,NW,310,0.0,0.0,92,0.00,,,0.00,meteohub,2013-02-16 09:29:00,
2013-02-16 04:35:00,33.3,31.5,29.94,NW,310,0.0,0.0,93,0.00,,,0.00,meteohub,2013-02-16 09:35:00,
2013-02-16 04:40:00,33.1,31.3,29.94,NW,310,0.0,0.0,93,0.00,,,0.00,meteohub,2013-02-16 09:40:00,
2013-02-16 04:45:00,32.9,31.3,29.94,NW,310,0.0,0.0,94,0.00,,,0.00,meteohub,2013-02-16 09:45:00,
2013-02-16 04:50:00,32.9,31.3,29.94,NW,310,0.0,0.0,94,0.00,,,0.00,meteohub,2013-02-16 09:50:00,
2013-02-16 04:55:00,32.7,31.1,29.93,NW,310,0.0,0.0,94,0.00,,,0.00,meteohub,2013-02-16 09:55:00,
2013-02-16 05:00:00,32.7,31.1,29.93,NW,310,0.0,0.0,94,0.00,,,0.00,meteohub,2013-02-16 10:00:00,
2013-02-16 05:06:00,32.5,31.3,29.94,NW,310,0.0,0.0,95,0.00,,,0.00,meteohub,2013-02-16 10:06:00,
2013-02-16 05:11:00,32.5,31.3,29.93,NW,310,0.0,0.0,95,0.00,,,0.00,meteohub,2013-02-16 10:11:00,
2013-02-16 05:16:00,32.5,31.3,29.94,NW,310,0.0,0.0,95,0.00,,,0.00,meteohub,2013-02-16 10:16:00,
2013-02-16 05:21:00,32.5,31.3,29.94,NW,310,0.0,0.0,95,0.00,,,0.00,meteohub,2013-02-16 10:21:00,
2013-02-16 05:26:00,32.4,31.1,29.94,NW,310,0.0,0.0,95,0.00,,,0.00,meteohub,2013-02-16 10:26:00,
2013-02-16 05:31:00,32.4,31.1,29.93,NW,310,0.0,0.0,95,0.00,,,0.00,meteohub,2013-02-16 10:31:00,
2013-02-16 05:36:00,32.4,31.1,29.93,NW,310,0.0,0.0,95,0.00,,,0.00,meteohub,2013-02-16 10:36:00,
2013-02-16 05:41:00,32.4,31.1,29.93,NW,310,0.0,0.0,95,0.00,,,0.00,meteohub,2013-02-16 10:41:00,
2013-02-16 05:47:00,32.2,31.1,29.93,NW,310,0.0,0.0,96,0.00,,,0.00,meteohub,2013-02-16 10:47:00,
2013-02-16 05:52:00,32.4,31.3,29.93,NW,310,0.0,0.0,96,0.00,,,0.00,meteohub,2013-02-16 10:52:00,
2013-02-16 05:57:00,32.4,31.1,29.92,NW,310,0.0,0.0,95,0.00,,,0.00,meteohub,2013-02-16 10:57:00,
2013-02-16 06:02:00,32.4,31.1,29.93,NW,310,0.0,0.0,95,0.00,,,0.00,meteohub,2013-02-16 11:02:00,
2013-02-16 06:07:00,32.4,31.1,29.93,NW,310,0.0,0.0,95,0.00,,,0.00,meteohub,2013-02-16 11:07:00,
2013-02-16 06:12:00,32.4,31.1,29.93,NW,310,0.0,0.0,95,0.00,,,0.00,meteohub,2013-02-16 11:12:00,
2013-02-16 06:17:00,32.4,31.1,29.94,NW,310,0.0,0.0,95,0.00,,,0.00,meteohub,2013-02-16 11:17:00,
2013-02-16 06:22:00,32.4,31.1,29.94,NW,310,0.0,0.0,95,0.00,,,0.00,meteohub,2013-02-16 11:22:00,
2013-02-16 06:27:00,32.4,31.1,29.94,NW,310,0.0,0.0,95,0.00,,,0.00,meteohub,2013-02-16 11:27:00,
2013-02-16 06:32:00,32.2,30.6,29.95,NW,310,0.0,0.0,94,0.00,,,0.00,meteohub,2013-02-16 11:32:00,
2013-02-16 06:37:00,32.2,30.6,29.95,NW,310,0.0,0.0,94,0.00,,,0.00,meteohub,2013-02-16 11:37:00,
2013-02-16 06:42:00,32.0,30.6,29.95,NW,310,0.0,0.0,94,0.00,,,0.00,meteohub,2013-02-16 11:42:00,
2013-02-16 06:47:00,31.8,30.4,29.95,NW,310,0.0,0.0,94,0.00,,,0.00,meteohub,2013-02-16 11:47:00,
2013-02-16 06:52:00,31.8,30.0,29.96,NW,310,0.0,0.0,93,0.00,,,0.00,meteohub,2013-02-16 11:52:00,
2013-02-16 06:57:00,31.8,30.0,29.96,NW,310,0.0,0.0,93,0.00,,,0.00,meteohub,2013-02-16 11:57:00,
2013-02-16 07:02:00,31.8,29.8,29.95,NW,310,0.0,0.0,92,0.00,,,0.00,meteohub,2013-02-16 12:02:00,
2013-02-16 07:07:00,31.8,29.8,29.95,NW,310,0.0,0.0,92,0.00,,,0.00,meteohub,2013-02-16 12:07:00,
2013-02-16 07:12:00,31.8,29.8,29.96,NW,310,0.0,0.0,92,0.00,,,0.00,meteohub,2013-02-16 12:12:00,
2013-02-16 07:17:00,31.8,29.8,29.96,NW,310,0.0,0.0,92,0.00,,,0.00,meteohub,2013-02-16 12:17:00,
2013-02-16 07:22:00,31.8,30.0,29.96,NW,310,0.0,0.0,93,0.00,,,0.00,meteohub,2013-02-16 12:22:00,
2013-02-16 07:27:00,31.6,29.8,29.96,NW,310,0.0,0.0,93,0.00,,,0.00,meteohub,2013-02-16 12:27:00,
2013-02-16 07:32:00,31.6,29.7,29.96,NW,310,0.0,0.0,92,0.00,,,0.00,meteohub,2013-02-16 12:32:00,
2013-02-16 07:37:00,31.6,29.7,29.96,NW,310,0.0,0.0,92,0.00,,,0.00,meteohub,2013-02-16 12:37:00,
2013-02-16 07:42:00,31.6,29.3,29.95,NW,310,0.0,0.0,91,0.00,,,0.00,meteohub,2013-02-16 12:42:00,
2013-02-16 07:47:00,31.6,29.3,29.96,NW,310,0.0,0.0,91,0.00,,,0.00,meteohub,2013-02-16 12:47:00,
2013-02-16 07:52:00,31.6,29.3,29.95,NW,310,0.0,0.0,91,0.00,,,0.00,meteohub,2013-02-16 12:52:00,
2013-02-16 07:57:00,31.6,29.3,29.95,NW,310,0.0,0.0,91,0.00,,,0.00,meteohub,2013-02-16 12:57:00,
2013-02-16 08:02:00,31.6,29.3,29.94,NW,310,0.0,0.0,91,0.00,,,0.00,meteohub,2013-02-16 13:02:00,
2013-02-16 08:07:00,31.8,29.8,29.94,NW,310,0.0,0.0,92,0.00,,,0.00,meteohub,2013-02-16 13:07:00,
2013-02-16 08:12:00,32.0,30.0,29.95,NW,310,0.0,0.0,92,0.00,,,0.00,meteohub,2013-02-16 13:12:00,
2013-02-16 08:17:00,32.2,30.2,29.95,NW,310,0.0,0.0,92,0.00,,,0.00,meteohub,2013-02-16 13:17:00,
2013-02-16 08:22:00,32.2,30.2,29.95,NW,310,0.0,0.0,92,0.00,,,0.00,meteohub,2013-02-16 13:22:00,
2013-02-16 08:27:00,32.4,30.0,29.95,NW,310,0.0,0.0,91,0.00,,,0.00,meteohub,2013-02-16 13:27:00,
2013-02-16 08:32:00,32.4,30.0,29.95,NW,310,0.0,0.0,91,0.00,,,0.00,meteohub,2013-02-16 13:32:00,
2013-02-16 08:37:00,32.5,30.0,29.95,NW,310,0.0,0.0,90,0.00,,,0.00,meteohub,2013-02-16 13:37:00,
2013-02-16 08:42:00,32.7,30.2,29.95,NW,310,0.0,0.0,90,0.06,,,0.06,meteohub,2013-02-16 13:42:00,
2013-02-16 08:47:00,32.7,30.2,29.95,NW,310,0.0,0.0,90,0.06,,,0.06,meteohub,2013-02-16 13:47:00,
2013-02-16 08:52:00,32.9,30.0,29.94,NW,310,0.0,0.0,89,0.06,,,0.06,meteohub,2013-02-16 13:52:00,
2013-02-16 08:57:00,32.7,29.5,29.94,NW,310,0.0,0.0,88,0.06,,,0.06,meteohub,2013-02-16 13:57:00,
2013-02-16 09:02:00,32.7,29.5,29.94,NW,310,0.0,0.0,88,0.06,,,0.06,meteohub,2013-02-16 14:02:00,
2013-02-16 09:07:00,32.7,29.5,29.94,NW,310,0.0,0.0,88,0.06,,,0.06,meteohub,2013-02-16 14:07:00,
2013-02-16 09:12:00,32.7,29.5,29.94,NW,310,0.0,0.0,88,0.06,,,0.06,meteohub,2013-02-16 14:12:00,
2013-02-16 09:17:00,32.7,29.5,29.94,NW,310,0.0,0.0,88,0.06,,,0.06,meteohub,2013-02-16 14:17:00,
2013-02-16 09:22:00,32.5,29.3,29.94,NW,310,0.0,0.0,88,0.06,,,0.06,meteohub,2013-02-16 14:22:00,
2013-02-16 09:27:00,32.5,29.3,29.94,NW,310,0.0,0.0,88,0.06,,,0.06,meteohub,2013-02-16 14:27:00,
2013-02-16 09:32:00,32.5,29.1,29.94,NW,310,0.0,0.0,87,0.06,,,0.06,meteohub,2013-02-16 14:32:00,
2013-02-16 09:37:00,32.5,29.1,29.94,NW,310,0.0,0.0,87,0.06,,,0.06,meteohub,2013-02-16 14:37:00,
2013-02-16 09:42:00,32.7,28.9,29.93,NW,310,0.0,0.0,86,0.00,,,0.06,meteohub,2013-02-16 14:42:00,
2013-02-16 09:47:00,32.7,28.9,29.93,NW,310,0.0,0.0,86,0.00,,,0.06,meteohub,2013-02-16 14:47:00,
2013-02-16 09:52:00,32.7,28.9,29.93,NW,310,0.0,0.0,86,0.00,,,0.06,meteohub,2013-02-16 14:52:00,
2013-02-16 09:57:00,32.7,29.3,29.94,NW,310,0.0,0.0,87,0.04,,,0.10,meteohub,2013-02-16 14:57:00,
2013-02-16 10:02:00,32.9,29.5,29.93,NW,310,0.0,0.0,87,0.10,,,0.16,meteohub,2013-02-16 15:02:00,
2013-02-16 10:07:00,32.7,28.9,29.93,NW,310,0.0,0.0,86,0.16,,,0.22,meteohub,2013-02-16 15:07:00,
2013-02-16 10:12:00,32.7,28.9,29.94,NW,310,0.0,0.0,86,0.22,,,0.28,meteohub,2013-02-16 15:12:00,
2013-02-16 10:17:00,32.7,28.9,29.94,NW,310,0.0,0.0,86,0.62,,,0.68,meteohub,2013-02-16 15:17:00,
2013-02-16 10:22:00,32.9,29.1,29.93,NW,310,0.0,0.0,86,2.06,,,2.12,meteohub,2013-02-16 15:22:00,
2013-02-16 10:27:00,33.1,29.1,29.93,NW,310,0.0,0.0,85,2.78,,,2.84,meteohub,2013-02-16 15:27:00,
2013-02-16 10:32:00,33.1,28.8,29.94,NW,310,0.0,0.0,84,3.84,,,3.90,meteohub,2013-02-16 15:32:00,
2013-02-16 10:37:00,32.9,28.6,29.93,NW,310,0.0,0.0,84,4.00,,,4.06,meteohub,2013-02-16 15:37:00,
2013-02-16 10:42:00,33.1,28.8,29.93,NW,310,0.0,0.0,84,4.52,,,4.58,meteohub,2013-02-16 15:42:00,
2013-02-16 10:47:00,33.1,28.8,29.93,NW,310,0.0,0.0,84,5.73,,,5.79,meteohub,2013-02-16 15:47:00,
2013-02-16 10:52:00,33.3,28.6,29.93,NW,310,0.0,0.0,83,5.84,,,5.91,meteohub,2013-02-16 15:52:00,
2013-02-16 10:57:00,33.4,28.8,29.93,NW,310,0.0,0.0,83,5.78,,,5.91,meteohub,2013-02-16 15:57:00,
2013-02-16 11:02:00,33.4,28.8,29.93,NW,310,0.0,0.0,83,5.73,,,5.91,meteohub,2013-02-16 16:02:00,
2013-02-16 11:07:00,33.6,28.9,29.93,NW,310,0.0,0.0,83,5.69,,,5.91,meteohub,2013-02-16 16:07:00,
2013-02-16 11:12:00,34.0,29.1,29.92,NW,310,0.0,0.0,82,5.60,,,5.91,meteohub,2013-02-16 16:12:00,
2013-02-16 11:17:00,34.2,29.3,29.93,NW,310,0.0,0.0,82,5.82,,,6.98,meteohub,2013-02-16 16:17:00,
2013-02-16 11:22:00,34.3,29.5,29.93,NW,310,0.0,0.0,82,5.22,,,7.70,meteohub,2013-02-16 16:22:00,
2013-02-16 11:27:00,34.3,29.1,29.93,NW,310,0.0,0.0,81,5.58,,,9.14,meteohub,2013-02-16 16:27:00,
2013-02-16 11:32:00,34.3,29.1,29.92,NW,310,0.0,0.0,81,6.02,,,9.98,meteohub,2013-02-16 16:32:00,
2013-02-16 11:37:00,34.5,28.9,29.92,NW,310,0.0,0.0,80,7.16,,,11.30,meteohub,2013-02-16 16:37:00,
2013-02-16 11:42:00,34.3,28.8,29.92,NW,310,0.0,0.0,80,7.56,,,12.74,meteohub,2013-02-16 16:42:00,
2013-02-16 11:47:00,34.2,28.6,29.92,NW,310,0.0,0.0,80,7.78,,,13.58,meteohub,2013-02-16 16:47:00,
2013-02-16 11:52:00,34.2,28.6,29.91,NW,310,0.0,0.0,80,9.11,,,15.02,meteohub,2013-02-16 16:52:00,
2013-02-16 11:57:00,34.3,28.8,29.91,NW,310,0.0,0.0,80,9.23,,,15.14,meteohub,2013-02-16 16:57:00,
2013-02-16 12:02:00,34.5,28.9,29.91,NW,310,0.0,0.0,80,9.95,,,15.86,meteohub,2013-02-16 17:02:00,
2013-02-16 12:07:00,34.9,29.3,29.91,NW,310,0.0,0.0,80,11.43,,,17.34,meteohub,2013-02-16 17:07:00,
2013-02-16 12:12:00,34.9,29.1,29.90,NW,310,0.0,0.0,79,12.18,,,18.10,meteohub,2013-02-16 17:12:00,
2013-02-16 12:17:00,35.1,28.9,29.91,NW,310,0.0,0.0,78,12.32,,,19.42,meteohub,2013-02-16 17:17:00,
2013-02-16 12:22:00,35.1,28.9,29.91,NW,310,0.0,0.0,78,12.56,,,20.86,meteohub,2013-02-16 17:22:00,
2013-02-16 12:27:00,35.2,28.8,29.90,NW,310,0.0,0.0,77,12.08,,,21.58,meteohub,2013-02-16 17:27:00,
2013-02-16 12:32:00,35.1,27.9,29.90,NW,310,0.0,0.0,75,12.40,,,23.10,meteohub,2013-02-16 17:32:00,
2013-02-16 12:37:00,34.9,27.1,29.90,NW,310,0.0,0.0,73,12.04,,,23.82,meteohub,2013-02-16 17:37:00,
2013-02-16 12:42:00,34.9,27.1,29.90,NW,310,0.0,0.0,73,12.40,,,25.38,meteohub,2013-02-16 17:42:00,
2013-02-16 12:47:00,34.9,26.8,29.90,NW,310,0.0,0.0,72,12.64,,,26.82,meteohub,2013-02-16 17:47:00,
2013-02-16 12:52:00,35.1,26.6,29.90,NW,310,0.0,0.0,71,12.40,,,27.54,meteohub,2013-02-16 17:52:00,
2013-02-16 12:57:00,35.1,26.2,29.90,NW,310,0.0,0.0,70,13.84,,,28.98,meteohub,2013-02-16 17:57:00,
2013-02-16 13:02:00,35.1,26.2,29.89,NW,310,0.0,0.0,70,13.36,,,29.70,meteohub,2013-02-16 18:02:00,
2013-02-16 13:07:00,35.1,26.2,29.88,NW,310,0.0,0.0,70,13.56,,,31.14,meteohub,2013-02-16 18:07:00,
2013-02-16 13:12:00,35.1,25.9,29.89,NW,310,0.0,0.0,69,13.88,,,32.58,meteohub,2013-02-16 18:12:00,
2013-02-16 13:17:00,35.1,25.9,29.89,NW,310,0.0,0.0,69,13.40,,,33.30,meteohub,2013-02-16 18:17:00,
2013-02-16 13:22:00,35.1,25.5,29.89,NW,310,0.0,0.0,68,12.92,,,34.02,meteohub,2013-02-16 18:22:00,
2013-02-16 13:27:00,35.2,25.3,29.89,NW,310,0.0,0.0,67,13.96,,,36.10,meteohub,2013-02-16 18:27:00,
2013-02-16 13:32:00,35.4,25.2,29.89,NW,310,0.0,0.0,66,13.48,,,36.94,meteohub,2013-02-16 18:32:00,
2013-02-16 13:37:00,35.4,24.4,29.88,NW,310,0.0,0.0,64,13.72,,,38.26,meteohub,2013-02-16 18:37:00,
2013-02-16 13:42:00,35.6,24.3,29.88,NW,310,0.0,0.0,63,13.24,,,38.98,meteohub,2013-02-16 18:42:00,
2013-02-16 13:47:00,35.8,24.1,29.88,NW,310,0.0,0.0,62,13.60,,,40.54,meteohub,2013-02-16 18:47:00,
2013-02-16 13:52:00,35.8,23.7,29.88,NW,310,0.0,0.0,61,13.84,,,41.98,meteohub,2013-02-16 18:52:00,
2013-02-16 13:57:00,35.8,24.1,29.88,NW,310,0.0,0.0,62,13.36,,,42.58,meteohub,2013-02-16 18:57:00,
2013-02-16 14:02:00,35.8,23.7,29.88,NW,310,0.0,0.0,61,13.72,,,44.14,meteohub,2013-02-16 19:02:00,
2013-02-16 14:07:00,36.0,23.9,29.88,NW,310,0.0,0.0,61,13.84,,,45.46,meteohub,2013-02-16 19:07:00,
2013-02-16 14:12:00,36.0,23.0,29.88,NW,310,0.0,0.0,59,13.36,,,46.18,meteohub,2013-02-16 19:12:00,
2013-02-16 14:17:00,36.1,23.2,29.87,NW,310,0.0,0.0,59,13.84,,,47.74,meteohub,2013-02-16 19:17:00,
2013-02-16 14:22:00,36.3,23.4,29.87,NW,310,0.0,0.0,59,13.24,,,48.34,meteohub,2013-02-16 19:22:00,
2013-02-16 14:27:00,36.9,23.9,29.87,NW,310,0.0,0.0,59,13.56,,,49.90,meteohub,2013-02-16 19:27:00,
2013-02-16 14:32:00,37.0,23.7,29.87,NW,310,0.0,0.0,58,13.80,,,51.22,meteohub,2013-02-16 19:32:00,
2013-02-16 14:37:00,37.2,23.4,29.87,NW,310,0.0,0.0,57,12.72,,,51.34,meteohub,2013-02-16 19:37:00,
2013-02-16 14:42:00,37.2,23.7,29.86,NW,310,0.0,0.0,58,12.60,,,52.42,meteohub,2013-02-16 19:42:00,
2013-02-16 14:47:00,37.0,23.7,29.86,NW,310,0.0,0.0,58,12.12,,,53.14,meteohub,2013-02-16 19:47:00,
2013-02-16 14:52:00,37.2,23.7,29.86,NW,310,0.0,0.0,58,12.36,,,54.46,meteohub,2013-02-16 19:52:00,
2013-02-16 14:57:00,37.2,23.7,29.85,NW,310,0.0,0.0,58,12.72,,,56.02,meteohub,2013-02-16 19:57:00,
2013-02-16 15:02:00,37.2,23.7,29.85,NW,310,0.0,0.0,58,12.24,,,56.74,meteohub,2013-02-16 20:02:00,
2013-02-16 15:07:00,37.2,23.7,29.85,NW,310,0.0,0.0,58,12.40,,,58.10,meteohub,2013-02-16 20:07:00,
2013-02-16 15:12:00,37.2,24.3,29.85,NW,310,0.0,0.0,59,12.88,,,59.66,meteohub,2013-02-16 20:12:00,
2013-02-16 15:17:00,37.0,24.1,29.84,NW,310,0.0,0.0,59,12.40,,,60.38,meteohub,2013-02-16 20:17:00,
2013-02-16 15:22:00,37.0,23.7,29.84,NW,310,0.0,0.0,58,12.64,,,61.82,meteohub,2013-02-16 20:22:00,
2013-02-16 15:27:00,37.0,24.1,29.84,NW,310,0.0,0.0,59,12.04,,,62.42,meteohub,2013-02-16 20:27:00,
2013-02-16 15:32:00,37.0,24.1,29.84,NW,310,0.0,0.0,59,12.64,,,63.98,meteohub,2013-02-16 20:32:00,
2013-02-16 15:37:00,37.0,23.7,29.83,NW,310,0.0,0.0,58,13.24,,,64.70,meteohub,2013-02-16 20:37:00,
2013-02-16 15:42:00,37.0,24.1,29.83,NW,310,0.0,0.0,59,12.28,,,65.06,meteohub,2013-02-16 20:42:00,
2013-02-16 15:47:00,37.0,24.1,29.83,NW,310,0.0,0.0,59,12.64,,,66.50,meteohub,2013-02-16 20:47:00,
2013-02-16 15:52:00,36.9,23.9,29.83,NW,310,0.0,0.0,59,12.28,,,67.34,meteohub,2013-02-16 20:52:00,
2013-02-16 15:57:00,36.9,23.9,29.83,NW,310,0.0,0.0,59,12.40,,,68.66,meteohub,2013-02-16 20:57:00,
2013-02-16 16:02:00,36.9,24.3,29.83,NW,310,0.0,0.0,60,12.80,,,70.26,meteohub,2013-02-16 21:02:00,
2013-02-16 16:07:00,36.9,23.9,29.83,NW,310,0.0,0.0,59,12.40,,,70.98,meteohub,2013-02-16 21:07:00,
2013-02-16 16:12:00,36.9,23.9,29.83,NW,310,0.0,0.0,59,12.64,,,72.42,meteohub,2013-02-16 21:12:00,
2013-02-16 16:17:00,36.7,24.4,29.83,NW,310,0.0,0.0,61,13.00,,,73.74,meteohub,2013-02-16 21:17:00,
2013-02-16 16:22:00,36.7,24.1,29.83,NW,310,0.0,0.0,60,12.52,,,74.58,meteohub,2013-02-16 21:22:00,
2013-02-16 16:27:00,36.7,23.7,29.83,NW,310,0.0,0.0,59,12.76,,,76.02,meteohub,2013-02-16 21:27:00,
2013-02-16 16:32:00,36.7,23.7,29.83,NW,310,0.0,0.0,59,12.04,,,76.50,meteohub,2013-02-16 21:32:00,
2013-02-16 16:37:00,36.7,24.4,29.83,NW,310,0.0,0.0,61,13.44,,,78.14,meteohub,2013-02-16 21:37:00,
2013-02-16 16:42:00,36.5,23.9,29.84,NW,310,0.0,0.0,60,13.92,,,79.58,meteohub,2013-02-16 21:42:00,
2013-02-16 16:47:00,36.3,24.1,29.83,NW,310,0.0,0.0,61,13.44,,,80.30,meteohub,2013-02-16 21:47:00,
2013-02-16 16:52:00,36.3,24.1,29.83,NW,310,0.0,0.0,61,13.68,,,81.74,meteohub,2013-02-16 21:52:00,
2013-02-16 16:57:00,36.3,24.6,29.83,NW,310,0.0,0.0,62,13.28,,,82.58,meteohub,2013-02-16 21:57:00,
2013-02-16 17:02:00,36.3,24.1,29.83,NW,310,0.0,0.0,61,13.64,,,84.02,meteohub,2013-02-16 22:02:00,
2013-02-16 17:07:00,36.3,24.6,29.83,NW,310,0.0,0.0,62,13.88,,,84.86,meteohub,2013-02-16 22:07:00,
2013-02-16 17:12:00,36.1,24.4,29.83,NW,310,0.0,0.0,62,13.40,,,86.18,meteohub,2013-02-16 22:12:00,
2013-02-16 17:17:00,36.1,24.1,29.83,NW,310,0.0,0.0,61,13.64,,,87.62,meteohub,2013-02-16 22:17:00,
2013-02-16 17:22:00,36.1,24.4,29.83,NW,310,0.0,0.0,62,13.28,,,88.34,meteohub,2013-02-16 22:22:00,
2013-02-16 17:27:00,36.0,23.9,29.83,NW,310,0.0,0.0,61,13.52,,,89.78,meteohub,2013-02-16 22:27:00,
2013-02-16 17:32:00,36.0,24.3,29.83,NW,310,0.0,0.0,62,13.92,,,91.34,meteohub,2013-02-16 22:32:00,
2013-02-16 17:37:00,36.0,23.9,29.83,NW,310,0.0,0.0,61,13.44,,,92.06,meteohub,2013-02-16 22:37:00,
2013-02-16 17:42:00,36.0,24.3,29.83,NW,310,0.0,0.0,62,13.60,,,93.42,meteohub,2013-02-16 22:42:00,
2013-02-16 17:47:00,35.8,24.4,29.83,NW,310,0.0,0.0,63,13.24,,,94.26,meteohub,2013-02-16 22:47:00,
2013-02-16 17:52:00,35.8,24.1,29.83,NW,310,0.0,0.0,62,13.60,,,95.70,meteohub,2013-02-16 22:52:00,
2013-02-16 17:57:00,35.6,24.6,29.83,NW,310,0.0,0.0,64,13.84,,,97.14,meteohub,2013-02-16 22:57:00,
2013-02-16 18:02:00,35.4,24.1,29.83,NW,310,0.0,0.0,63,13.36,,,97.86,meteohub,2013-02-16 23:02:00,
2013-02-16 18:07:00,35.4,24.8,29.83,NW,310,0.0,0.0,65,13.48,,,99.18,meteohub,2013-02-16 23:07:00,
2013-02-16 18:12:00,35.4,24.8,29.83,NW,310,0.0,0.0,65,13.84,,,99.99,meteohub,2013-02-16 23:12:00,
2013-02-16 18:17:00,35.2,23.2,29.83,NW,310,0.0,0.0,61,13.36,,,99.99,meteohub,2013-02-16 23:17:00,
2013-02-16 18:22:00,35.2,22.3,29.83,NW,310,0.0,0.0,59,13.72,,,99.99,meteohub,2013-02-16 23:22:00,
2013-02-16 18:27:00,35.2,21.9,29.83,NW,310,0.0,0.0,58,13.96,,,99.99,meteohub,2013-02-16 23:27:00,
2013-02-16 18:32:00,35.2,22.8,29.82,NW,310,0.0,0.0,60,13.48,,,99.99,meteohub,2013-02-16 23:32:00,
2013-02-16 18:37:00,35.1,21.7,29.82,NW,310,0.0,0.0,58,13.68,,,99.99,meteohub,2013-02-16 23:37:00,
2013-02-16 18:42:00,35.1,21.7,29.82,NW,310,0.0,0.0,58,13.32,,,99.99,meteohub,2013-02-16 23:42:00,
2013-02-16 18:47:00,35.1,21.7,29.82,NW,310,0.0,0.0,58,13.68,,,99.99,meteohub,2013-02-16 23:47:00,
2013-02-16 18:52:00,34.9,21.9,29.82,NW,310,0.0,0.0,59,13.92,,,99.99,meteohub,2013-02-16 23:52:00,
2013-02-16 18:57:00,34.9,22.5,29.82,NW,310,0.0,0.0,60,13.32,,,99.99,meteohub,2013-02-16 23:57:00,
2013-02-16 19:02:00,34.7,21.9,29.83,NW,310,0.0,0.0,59,13.68,,,99.99,meteohub,2013-02-17 00:02:00,
2013-02-16 19:07:00,34.5,21.7,29.82,NW,310,0.0,0.0,59,13.20,,,0.48,meteohub,2013-02-17 00:07:00,
2013-02-16 19:12:00,34.3,21.9,29.82,NW,310,0.0,0.0,60,13.56,,,2.04,meteohub,2013-02-17 00:12:00,
2013-02-16 19:17:00,34.3,22.3,29.82,NW,310,0.0,0.0,61,13.80,,,3.48,meteohub,2013-02-17 00:17:00,
2013-02-16 19:22:00,34.3,21.9,29.83,NW,310,0.0,0.0,60,13.44,,,4.20,meteohub,2013-02-17 00:22:00,
2013-02-16 19:27:00,34.2,21.7,29.83,NW,310,0.0,0.0,60,13.68,,,5.64,meteohub,2013-02-17 00:27:00,
2013-02-16 19:32:00,34.0,21.6,29.83,NW,310,0.0,0.0,60,13.92,,,7.08,meteohub,2013-02-17 00:32:00,
2013-02-16 19:37:00,34.0,21.6,29.82,NW,310,0.0,0.0,60,13.44,,,7.80,meteohub,2013-02-17 00:37:00,
2013-02-16 19:42:00,33.8,21.0,29.82,NW,310,0.0,0.0,59,13.80,,,9.24,meteohub,2013-02-17 00:42:00,
2013-02-16 19:47:00,33.8,21.4,29.82,NW,310,0.0,0.0,60,13.20,,,9.84,meteohub,2013-02-17 00:47:00,
2013-02-16 19:52:00,33.6,21.6,29.82,NW,310,0.0,0.0,61,13.56,,,11.40,meteohub,2013-02-17 00:52:00,
2013-02-16 19:57:00,33.6,21.6,29.82,NW,310,0.0,0.0,61,13.80,,,12.84,meteohub,2013-02-17 00:57:00,
2013-02-16 20:02:00,33.4,22.3,29.82,NW,310,0.0,0.0,63,13.32,,,13.56,meteohub,2013-02-17 01:02:00,
2013-02-16 20:07:00,33.3,22.1,29.81,NW,310,0.0,0.0,63,13.56,,,14.88,meteohub,2013-02-17 01:07:00,
2013-02-16 20:12:00,33.1,21.9,29.82,NW,310,0.0,0.0,63,13.92,,,16.44,meteohub,2013-02-17 01:12:00,
2013-02-16 20:17:00,33.1,22.3,29.82,NW,310,0.0,0.0,64,13.44,,,17.16,meteohub,2013-02-17 01:17:00,
2013-02-16 20:22:00,33.1,22.3,29.81,NW,310,0.0,0.0,64,13.64,,,18.56,meteohub,2013-02-17 01:22:00,
2013-02-16 20:27:00,32.9,22.1,29.81,NW,310,0.0,0.0,64,13.40,,,19.40,meteohub,2013-02-17 01:27:00,
2013-02-16 20:32:00,32.7,21.9,29.81,NW,310,0.0,0.0,64,12.44,,,19.64,meteohub,2013-02-17 01:32:00,
2013-02-16 20:37:00,32.7,22.3,29.80,North,-999,-999.0,0.0,65,12.68,,,20.96,meteohub,2013-02-17 01:37:00,
2013-02-16 20:42:00,32.5,22.5,29.80,NW,310,0.0,0.0,66,12.20,,,21.80,meteohub,2013-02-17 01:42:00,
2013-02-16 20:47:00,32.5,22.5,29.81,NW,310,0.0,0.0,66,12.56,,,23.24,meteohub,2013-02-17 01:47:00,
2013-02-16 20:52:00,32.5,22.8,29.81,NW,310,0.0,0.0,67,12.08,,,23.96,meteohub,2013-02-17 01:52:00,
2013-02-16 20:57:00,32.4,22.6,29.81,NW,310,0.0,0.0,67,12.32,,,25.40,meteohub,2013-02-17 01:57:00,
2013-02-16 21:02:00,32.4,22.6,29.80,NW,310,0.0,0.0,67,12.44,,,26.72,meteohub,2013-02-17 02:02:00,
2013-02-16 21:07:00,32.4,22.6,29.79,NW,310,0.0,0.0,67,12.08,,,27.44,meteohub,2013-02-17 02:07:00,
2013-02-16 21:12:00,32.2,22.5,29.79,NW,310,0.0,0.0,67,12.28,,,28.84,meteohub,2013-02-17 02:12:00,
2013-02-16 21:17:00,32.2,22.8,29.79,NW,310,0.0,0.0,68,12.44,,,30.28,meteohub,2013-02-17 02:17:00,
2013-02-16 21:22:00,32.2,23.2,29.79,NW,310,0.0,0.0,69,12.08,,,31.00,meteohub,2013-02-17 02:22:00,
2013-02-16 21:27:00,31.8,22.8,29.79,NW,310,0.0,0.0,69,12.84,,,32.48,meteohub,2013-02-17 02:27:00,
2013-02-16 21:32:00,31.8,23.2,29.78,NW,310,0.0,0.0,70,13.56,,,33.20,meteohub,2013-02-17 02:32:00,
2013-02-16 21:37:00,31.6,23.4,29.78,NW,310,0.0,0.0,71,13.48,,,34.68,meteohub,2013-02-17 02:37:00,
2013-02-16 21:42:00,31.6,23.4,29.78,NW,310,0.0,0.0,71,13.84,,,36.12,meteohub,2013-02-17 02:42:00,
2013-02-16 21:47:00,31.6,23.4,29.78,NW,310,0.0,0.0,71,13.36,,,36.84,meteohub,2013-02-17 02:47:00,
2013-02-16 21:52:00,31.6,23.4,29.78,NW,310,0.0,0.0,71,13.72,,,38.40,meteohub,2013-02-17 02:52:00,
2013-02-16 21:57:00,31.5,23.2,29.77,NW,310,0.0,0.0,71,13.24,,,39.12,meteohub,2013-02-17 02:57:00,
2013-02-16 22:02:00,31.5,23.5,29.78,NW,310,0.0,0.0,72,13.60,,,40.56,meteohub,2013-02-17 03:02:00,
2013-02-16 22:07:00,31.3,23.4,29.77,NW,310,0.0,0.0,72,13.80,,,42.00,meteohub,2013-02-17 03:07:00,
2013-02-16 22:12:00,31.1,23.5,29.76,NW,310,0.0,0.0,73,13.40,,,42.72,meteohub,2013-02-17 03:12:00,
2013-02-16 22:17:00,30.9,23.5,29.76,NW,310,0.0,0.0,74,13.52,,,44.04,meteohub,2013-02-17 03:17:00,
2013-02-16 22:22:00,30.7,23.4,29.76,NW,310,0.0,0.0,74,13.84,,,45.48,meteohub,2013-02-17 03:22:00,
2013-02-16 22:27:00,30.7,24.1,29.76,NW,310,0.0,0.0,76,13.48,,,46.32,meteohub,2013-02-17 03:27:00,
2013-02-16 22:32:00,30.6,23.9,29.76,NW,310,0.0,0.0,76,13.72,,,47.76,meteohub,2013-02-17 03:32:00,
2013-02-16 22:37:00,30.6,24.3,29.75,NW,310,0.0,0.0,77,12.84,,,48.00,meteohub,2013-02-17 03:37:00,
2013-02-16 22:42:00,30.4,24.1,29.75,North,-999,-999.0,0.0,77,12.32,,,48.68,meteohub,2013-02-17 03:42:00,
2013-02-16 22:47:00,30.4,24.1,29.75,NW,310,0.0,0.0,77,12.56,,,50.12,meteohub,2013-02-17 03:47:00,
2013-02-16 22:52:00,30.0,24.1,29.75,NW,310,0.0,0.0,78,12.08,,,50.84,meteohub,2013-02-17 03:52:00,
2013-02-16 22:57:00,30.0,24.3,29.74,NW,310,0.0,0.0,79,12.32,,,52.16,meteohub,2013-02-17 03:57:00,
2013-02-16 23:02:00,29.8,24.1,29.73,NW,310,0.0,0.0,79,12.60,,,53.64,meteohub,2013-02-17 04:02:00,
2013-02-16 23:07:00,29.8,24.4,29.73,NW,310,0.0,0.0,80,12.16,,,54.40,meteohub,2013-02-17 04:07:00,
2013-02-16 23:12:00,29.7,24.3,29.73,NW,310,0.0,0.0,80,12.52,,,55.96,meteohub,2013-02-17 04:12:00,
2013-02-16 23:17:00,29.7,24.6,29.73,NW,310,0.0,0.0,81,11.56,,,56.08,meteohub,2013-02-17 04:17:00,
2013-02-16 23:22:00,29.5,24.6,29.72,NW,310,0.0,0.0,82,11.32,,,57.04,meteohub,2013-02-17 04:22:00,
2013-02-16 23:27:00,29.1,24.6,29.72,NW,310,0.0,0.0,83,11.68,,,58.48,meteohub,2013-02-17 04:27:00,
2013-02-16 23:32:00,28.9,24.4,29.73,NW,310,0.0,0.0,83,11.20,,,59.20,meteohub,2013-02-17 04:32:00,
2013-02-16 23:37:00,28.8,24.6,29.73,NW,310,0.0,0.0,84,12.76,,,60.76,meteohub,2013-02-17 04:37:00,
2013-02-16 23:42:00,28.8,24.6,29.72,NW,310,0.0,0.0,84,12.32,,,61.48,meteohub,2013-02-17 04:42:00,
2013-02-16 23:47:00,28.6,24.6,29.71,NW,310,0.0,0.0,85,12.44,,,62.80,meteohub,2013-02-17 04:47:00,
2013-02-16 23:52:00,28.4,24.4,29.70,NW,310,0.0,0.0,85,12.80,,,64.24,meteohub,2013-02-17 04:52:00,
2013-02-16 23:57:00,28.2,24.3,29.70,NW,310,0.0,0.0,85,12.32,,,64.96,meteohub,2013-02-17 04:57:00,